Time,TemperatureF,DewpointF,PressureIn,WindDirection,WindDirectionDegrees,WindSpeedMPH,WindSpeedGustMPH,Humidity,HourlyPrecipIn,Conditions,Clouds,dailyrainin,SoftwareType,DateUTC
2013-05-12 00:02:00,52.2,30.0,30.18,SSW,205,0.0,0.0,43,0.00,,,0.00,weatherlink.com 1.10,2013-05-12 06:02:00,
2013-05-12 00:17:00,51.7,30.0,30.18,SSW,204,0.0,1.0,43,0.00,,,0.00,weatherlink.com 1.10,2013-05-12 06:17:00,
2013-05-12 00:32:00,51.3,30.0,30.18,SSW,200,0.0,3.0,44,0.00,,,0.00,weatherlink.com 1.10,2013-05-12 06:32:00,
2013-05-12 00:47:00,50.8,31.0,30.19,SSW,207,0.0,1.0,47,0.00,,,0.00,weatherlink.com 1.10,2013-05-12 06:47:00,
2013-05-12 01:02:00,50.6,30.0,30.18,SSW,207,0.0,0.0,45,0.00,,,0.00,weatherlink.com 1.10,2013-05-12 07:02:00,
2013-05-12 01:17:00,49.8,31.0,30.19,SSW,207,0.0,0.0,48,0.00,,,0.00,weatherlink.com 1.10,2013-05-12 07:17:00,
2013-05-12 01:32:00,50.4,31.0,30.18,SSW,205,0.0,3.0,47,0.00,,,0.00,weatherlink.com 1.10,2013-05-12 07:32:00,
2013-05-12 01:47:00,49.6,30.0,30.18,SSW,205,0.0,1.0,47,0.00,,,0.00,weatherlink.com 1.10,2013-05-12 07:47:00,
2013-05-12 02:02:00,48.6,30.0,30.18,West,278,2.0,2.0,49,0.00,,,0.00,weatherlink.com 1.10,2013-05-12 08:02:00,
2013-05-12 02:17:00,49.9,31.0,30.18,NW,323,1.0,2.0,49,0.00,,,0.00,weatherlink.com 1.10,2013-05-12 08:17:00,
2013-05-12 02:32:00,49.7,31.0,30.18,NW,323,0.0,2.0,49,0.00,,,0.00,weatherlink.com 1.10,2013-05-12 08:32:00,
2013-05-12 02:47:00,48.3,30.0,30.18,South,189,0.0,1.0,50,0.00,,,0.00,weatherlink.com 1.10,2013-05-12 08:47:00,
2013-05-12 03:02:00,47.5,30.0,30.18,South,188,0.0,0.0,52,0.00,,,0.00,weatherlink.com 1.10,2013-05-12 09:02:00,
2013-05-12 03:17:00,47.4,32.0,30.18,NNW,342,0.0,2.0,55,0.00,,,0.00,weatherlink.com 1.10,2013-05-12 09:17:00,
2013-05-12 03:33:00,46.2,31.0,30.18,South,191,0.0,3.0,55,0.00,,,0.00,weatherlink.com 1.10,2013-05-12 09:33:00,
2013-05-12 03:48:00,45.7,31.0,30.18,SSW,198,0.0,0.0,56,0.00,,,0.00,weatherlink.com 1.10,2013-05-12 09:48:00,
2013-05-12 04:03:00,45.9,31.0,30.18,NNW,342,1.0,2.0,56,0.00,,,0.00,weatherlink.com 1.10,2013-05-12 10:03:00,
2013-05-12 04:18:00,46.0,32.0,30.18,NW,326,1.0,3.0,58,0.00,,,0.00,weatherlink.com 1.10,2013-05-12 10:18:00,
2013-05-12 04:33:00,45.9,32.0,30.18,NW,326,0.0,2.0,59,0.00,,,0.00,weatherlink.com 1.10,2013-05-12 10:33:00,
2013-05-12 04:48:00,46.0,33.0,30.19,NW,323,2.0,3.0,60,0.00,,,0.00,weatherlink.com 1.10,2013-05-12 10:48:00,
2013-05-12 05:03:00,45.0,31.0,30.18,NNW,328,0.0,1.0,59,0.00,,,0.00,weatherlink.com 1.10,2013-05-12 11:03:00,
2013-05-12 05:18:00,44.2,31.0,30.18,NNW,328,0.0,1.0,60,0.00,,,0.00,weatherlink.com 1.10,2013-05-12 11:18:00,
2013-05-12 05:33:00,44.4,31.0,30.19,NNW,327,0.0,1.0,60,0.00,,,0.00,weatherlink.com 1.10,2013-05-12 11:33:00,
2013-05-12 05:48:00,43.0,30.0,30.19,NNW,328,0.0,0.0,60,0.00,,,0.00,weatherlink.com 1.10,2013-05-12 11:48:00,
2013-05-12 06:03:00,43.0,31.0,30.20,NW,319,1.0,2.0,62,0.00,,,0.00,weatherlink.com 1.10,2013-05-12 12:03:00,
2013-05-12 06:18:00,43.7,32.0,30.20,NW,319,0.0,2.0,64,0.00,,,0.00,weatherlink.com 1.10,2013-05-12 12:18:00,
2013-05-12 06:33:00,45.5,33.0,30.21,NW,318,0.0,2.0,62,0.00,,,0.00,weatherlink.com 1.10,2013-05-12 12:33:00,
2013-05-12 06:48:00,47.8,33.0,30.21,SSW,197,0.0,0.0,58,0.00,,,0.00,weatherlink.com 1.10,2013-05-12 12:48:00,
2013-05-12 07:03:00,48.8,34.0,30.21,WNW,295,0.0,1.0,56,0.00,,,0.00,weatherlink.com 1.10,2013-05-12 13:03:00,
2013-05-12 07:18:00,50.7,33.0,30.21,NNW,338,0.0,2.0,52,0.00,,,0.00,weatherlink.com 1.10,2013-05-12 13:18:00,
2013-05-12 07:33:00,52.3,34.0,30.21,SE,135,0.0,3.0,51,0.00,,,0.00,weatherlink.com 1.10,2013-05-12 13:33:00,
2013-05-12 07:48:00,53.3,34.0,30.20,North,1,2.0,4.0,48,0.00,,,0.00,weatherlink.com 1.10,2013-05-12 13:48:00,
2013-05-12 08:03:00,55.1,34.0,30.20,NNW,328,1.0,4.0,46,0.00,,,0.00,weatherlink.com 1.10,2013-05-12 14:03:00,
2013-05-12 08:18:00,55.9,35.0,30.20,NNE,20,0.0,5.0,45,0.00,,,0.00,weatherlink.com 1.10,2013-05-12 14:18:00,
2013-05-12 08:33:00,57.5,35.0,30.19,NW,307,1.0,6.0,43,0.00,,,0.00,weatherlink.com 1.10,2013-05-12 14:33:00,
2013-05-12 08:48:00,58.1,34.0,30.19,NNW,335,1.0,6.0,41,0.00,,,0.00,weatherlink.com 1.10,2013-05-12 14:48:00,
2013-05-12 09:03:00,58.5,35.0,30.19,NNW,338,3.0,6.0,41,0.00,,,0.00,weatherlink.com 1.10,2013-05-12 15:03:00,
2013-05-12 09:18:00,60.4,36.0,30.18,NNW,341,3.0,5.0,40,0.00,,,0.00,weatherlink.com 1.10,2013-05-12 15:18:00,
2013-05-12 09:33:00,61.7,36.0,30.18,NNW,342,1.0,5.0,38,0.00,,,0.00,weatherlink.com 1.10,2013-05-12 15:33:00,
2013-05-12 09:48:00,63.5,36.0,30.18,NE,54,0.0,4.0,36,0.00,,,0.00,weatherlink.com 1.10,2013-05-12 15:48:00,
2013-05-12 10:04:00,65.1,37.0,30.17,ENE,67,2.0,4.0,35,0.00,,,0.00,weatherlink.com 1.10,2013-05-12 16:04:00,
2013-05-12 10:19:00,67.6,37.0,30.16,ENE,63,3.0,3.0,32,0.00,,,0.00,weatherlink.com 1.10,2013-05-12 16:19:00,
2013-05-12 10:34:00,68.0,37.0,30.16,East,79,1.0,5.0,32,0.00,,,0.00,weatherlink.com 1.10,2013-05-12 16:34:00,
2013-05-12 10:49:00,70.5,36.0,30.15,ENE,64,3.0,4.0,28,0.00,,,0.00,weatherlink.com 1.10,2013-05-12 16:49:00,
2013-05-12 11:04:00,70.6,35.0,30.15,SE,146,2.0,6.0,27,0.00,,,0.00,weatherlink.com 1.10,2013-05-12 17:04:00,
2013-05-12 11:19:00,70.3,36.0,30.14,NE,39,4.0,7.0,28,0.00,,,0.00,weatherlink.com 1.10,2013-05-12 17:19:00,
2013-05-12 11:34:00,72.3,35.0,30.13,SSE,147,4.0,10.0,25,0.00,,,0.00,weatherlink.com 1.10,2013-05-12 17:34:00,
2013-05-12 11:49:00,72.7,34.0,30.12,East,84,4.0,9.0,24,0.00,,,0.00,weatherlink.com 1.10,2013-05-12 17:49:00,
2013-05-12 12:04:00,73.4,34.0,30.10,ESE,120,7.0,7.0,24,0.00,,,0.00,weatherlink.com 1.10,2013-05-12 18:04:00,
2013-05-12 12:19:00,73.5,33.0,30.09,ESE,115,1.0,9.0,23,0.00,,,0.00,weatherlink.com 1.10,2013-05-12 18:19:00,
2013-05-12 12:34:00,75.3,34.0,30.08,SSW,211,3.0,8.0,22,0.00,,,0.00,weatherlink.com 1.10,2013-05-12 18:34:00,
2013-05-12 12:49:00,74.5,32.0,30.06,East,96,5.0,9.0,21,0.00,,,0.00,weatherlink.com 1.10,2013-05-12 18:49:00,
2013-05-12 13:04:00,75.0,34.0,30.06,SE,145,5.0,10.0,22,0.00,,,0.00,weatherlink.com 1.10,2013-05-12 19:04:00,
2013-05-12 13:19:00,76.0,32.0,30.05,SSE,159,3.0,10.0,20,0.00,,,0.00,weatherlink.com 1.10,2013-05-12 19:19:00,
2013-05-12 13:34:00,76.6,35.0,30.04,ESE,117,7.0,9.0,22,0.00,,,0.00,weatherlink.com 1.10,2013-05-12 19:34:00,
2013-05-12 13:49:00,76.6,34.0,30.04,SSW,207,10.0,10.0,21,0.00,,,0.00,weatherlink.com 1.10,2013-05-12 19:49:00,
2013-05-12 14:04:00,78.1,34.0,30.03,ESE,122,5.0,9.0,20,0.00,,,0.00,weatherlink.com 1.10,2013-05-12 20:04:00,
2013-05-12 14:19:00,77.6,32.0,30.02,ESE,106,2.0,10.0,19,0.00,,,0.00,weatherlink.com 1.10,2013-05-12 20:19:00,
2013-05-12 14:34:00,77.4,29.0,30.01,South,171,1.0,5.0,17,0.00,,,0.00,weatherlink.com 1.10,2013-05-12 20:34:00,
2013-05-12 14:49:00,79.8,31.0,30.00,North,6,1.0,8.0,17,0.00,,,0.00,weatherlink.com 1.10,2013-05-12 20:49:00,
2013-05-12 15:05:00,80.2,28.0,29.99,SSE,154,1.0,7.0,15,0.00,,,0.00,weatherlink.com 1.10,2013-05-12 21:05:00,
2013-05-12 15:20:00,80.8,29.0,29.98,NNW,338,6.0,6.0,15,0.00,,,0.00,weatherlink.com 1.10,2013-05-12 21:20:00,
2013-05-12 15:35:00,80.8,32.0,29.98,West,278,1.0,9.0,17,0.00,,,0.00,weatherlink.com 1.10,2013-05-12 21:35:00,
2013-05-12 15:50:00,80.1,27.0,29.97,SSE,149,3.0,12.0,14,0.00,,,0.00,weatherlink.com 1.10,2013-05-12 21:50:00,
2013-05-12 16:05:00,81.3,28.0,29.96,ESE,119,11.0,15.0,14,0.00,,,0.00,weatherlink.com 1.10,2013-05-12 22:05:00,
2013-05-12 16:20:00,81.3,28.0,29.95,SW,226,3.0,12.0,14,0.00,,,0.00,weatherlink.com 1.10,2013-05-12 22:20:00,
2013-05-12 16:35:00,79.8,25.0,29.95,ESE,111,4.0,13.0,13,0.00,,,0.00,weatherlink.com 1.10,2013-05-12 22:35:00,
2013-05-12 16:50:00,79.0,26.0,29.95,NNW,330,1.0,8.0,14,0.00,,,0.00,weatherlink.com 1.10,2013-05-12 22:50:00,
2013-05-12 17:05:00,82.1,28.0,29.95,SSE,162,1.0,7.0,14,0.00,,,0.00,weatherlink.com 1.10,2013-05-12 23:05:00,
2013-05-12 17:20:00,80.6,29.0,29.95,SSE,160,4.0,15.0,15,0.00,,,0.00,weatherlink.com 1.10,2013-05-12 23:20:00,
2013-05-12 17:35:00,76.6,29.0,29.95,SE,124,5.0,19.0,17,0.00,,,0.00,weatherlink.com 1.10,2013-05-12 23:35:00,
2013-05-12 17:50:00,75.9,28.0,29.96,WSW,241,5.0,6.0,17,0.00,,,0.00,weatherlink.com 1.10,2013-05-12 23:50:00,
2013-05-12 18:05:00,76.6,30.0,29.94,ESE,122,7.0,9.0,18,0.00,,,0.00,weatherlink.com 1.10,2013-05-13 00:05:00,
2013-05-12 18:20:00,75.4,28.0,29.95,East,84,4.0,10.0,17,0.00,,,0.00,weatherlink.com 1.10,2013-05-13 00:20:00,
2013-05-12 18:35:00,75.5,28.0,29.95,SW,225,3.0,6.0,17,0.00,,,0.00,weatherlink.com 1.10,2013-05-13 00:35:00,
2013-05-12 18:50:00,75.2,29.0,29.95,ESE,121,1.0,5.0,18,0.00,,,0.00,weatherlink.com 1.10,2013-05-13 00:50:00,
2013-05-12 19:05:00,76.7,29.0,29.94,South,181,2.0,5.0,17,0.00,,,0.00,weatherlink.com 1.10,2013-05-13 01:05:00,
2013-05-12 19:20:00,75.1,29.0,29.94,South,173,2.0,4.0,18,0.00,,,0.00,weatherlink.com 1.10,2013-05-13 01:20:00,
2013-05-12 19:35:00,74.3,28.0,29.94,SSW,205,2.0,4.0,18,0.00,,,0.00,weatherlink.com 1.10,2013-05-13 01:35:00,
2013-05-12 19:50:00,73.5,29.0,29.95,South,170,2.0,3.0,19,0.00,,,0.00,weatherlink.com 1.10,2013-05-13 01:50:00,
2013-05-12 20:05:00,72.7,29.0,29.95,SW,215,2.0,7.0,20,0.00,,,0.00,weatherlink.com 1.10,2013-05-13 02:05:00,
2013-05-12 20:20:00,72.2,29.0,29.95,South,170,3.0,4.0,20,0.00,,,0.00,weatherlink.com 1.10,2013-05-13 02:20:00,
2013-05-12 20:35:00,71.5,28.0,29.96,SSW,200,0.0,2.0,20,0.00,,,0.00,weatherlink.com 1.10,2013-05-13 02:35:00,
2013-05-12 20:50:00,70.0,31.0,29.97,SE,131,0.0,1.0,24,0.00,,,0.00,weatherlink.com 1.10,2013-05-13 02:50:00,
2013-05-12 21:05:00,68.5,31.0,29.97,South,184,0.0,1.0,25,0.00,,,0.00,weatherlink.com 1.10,2013-05-13 03:05:00,
2013-05-12 21:20:00,67.9,30.0,29.98,SW,218,2.0,2.0,24,0.00,,,0.00,weatherlink.com 1.10,2013-05-13 03:20:00,
2013-05-12 21:35:00,67.8,29.0,29.98,WSW,240,2.0,3.0,23,0.00,,,0.00,weatherlink.com 1.10,2013-05-13 03:35:00,
2013-05-12 21:50:00,67.7,27.0,29.99,WSW,245,3.0,3.0,22,0.00,,,0.00,weatherlink.com 1.10,2013-05-13 03:50:00,
2013-05-12 22:05:00,67.0,28.0,29.99,WSW,246,4.0,6.0,23,0.00,,,0.00,weatherlink.com 1.10,2013-05-13 04:05:00,
2013-05-12 22:20:00,66.9,28.0,29.99,WSW,239,0.0,4.0,23,0.00,,,0.00,weatherlink.com 1.10,2013-05-13 04:20:00,
2013-05-12 22:35:00,64.7,27.0,30.00,WSW,252,1.0,1.0,24,0.00,,,0.00,weatherlink.com 1.10,2013-05-13 04:35:00,
2013-05-12 22:50:00,63.0,27.0,30.00,SSE,151,0.0,1.0,25,0.00,,,0.00,weatherlink.com 1.10,2013-05-13 04:50:00,
2013-05-12 23:05:00,63.6,26.0,30.00,SW,231,4.0,4.0,24,0.00,,,0.00,weatherlink.com 1.10,2013-05-13 05:05:00,
2013-05-12 23:20:00,61.6,26.0,30.00,WSW,240,2.0,4.0,26,0.00,,,0.00,weatherlink.com 1.10,2013-05-13 05:20:00,
2013-05-12 23:35:00,61.1,27.0,30.01,ENE,66,0.0,3.0,27,0.00,,,0.00,weatherlink.com 1.10,2013-05-13 05:35:00,
2013-05-12 23:50:00,60.4,26.0,30.02,SW,225,1.0,2.0,27,0.00,,,0.00,weatherlink.com 1.10,2013-05-13 05:50:00,